AZU2202 SBRF-SBFN

Flight info

Callsign AZU2202
Flight time 0h 56m
Altitude 35000
Route FNR
Aircraft A20N/M-SDE2E3FGHIRWXY/LB1

Departure

Time 2026-04-26 01:50
Airport Recife/Guararapes - Gilberto Freyre International Airport (SBRF)

Arrival

Time 2026-04-26 02:46
Airport Fernando de Noronha Airport (SBFN)
Time Latitude Longitude Altitude Speed Heading
2026-04-26 01:01 -8.13055 -34.91948 47 ft 0 kts 71°
2026-04-26 01:12 -8.13056 -34.91949 47 ft 1 kts 71°
2026-04-26 01:12 -8.13060 -34.91964 46 ft 2 kts 71°
2026-04-26 01:12 -8.13066 -34.91978 46 ft 2 kts 71°
2026-04-26 01:13 -8.13070 -34.91993 46 ft 2 kts 71°
2026-04-26 01:13 -8.13073 -34.92002 46 ft 2 kts 69°
2026-04-26 01:13 -8.13083 -34.92012 46 ft 2 kts 20°
2026-04-26 01:13 -8.13096 -34.92014 46 ft 0 kts 346°
2026-04-26 01:14 -8.13102 -34.92012 46 ft 1 kts 340°
2026-04-26 01:14 -8.13104 -34.92011 46 ft 0 kts 341°
2026-04-26 01:17 -8.13103 -34.92011 46 ft 0 kts 341°
2026-04-26 01:17 -8.13095 -34.92014 46 ft 1 kts 341°
2026-04-26 01:17 -8.13078 -34.92020 46 ft 3 kts 341°
2026-04-26 01:17 -8.13051 -34.92029 46 ft 4 kts 341°
2026-04-26 01:18 -8.13017 -34.92040 46 ft 5 kts 342°
2026-04-26 01:18 -8.12975 -34.92053 46 ft 6 kts 343°
2026-04-26 01:18 -8.12924 -34.92070 46 ft 8 kts 342°
2026-04-26 01:18 -8.12866 -34.92089 47 ft 9 kts 342°
2026-04-26 01:19 -8.12803 -34.92109 47 ft 10 kts 342°
2026-04-26 01:19 -8.12730 -34.92133 47 ft 11 kts 342°
2026-04-26 01:19 -8.12650 -34.92159 47 ft 12 kts 342°
2026-04-26 01:19 -8.12565 -34.92186 47 ft 13 kts 342°
2026-04-26 01:20 -8.12474 -34.92215 47 ft 14 kts 340°
2026-04-26 01:20 -8.12382 -34.92256 47 ft 14 kts 331°
2026-04-26 01:20 -8.12298 -34.92301 47 ft 12 kts 352°
2026-04-26 01:20 -8.12214 -34.92319 47 ft 12 kts 346°
2026-04-26 01:21 -8.12126 -34.92336 47 ft 13 kts 350°
2026-04-26 01:21 -8.12032 -34.92362 47 ft 14 kts 342°
2026-04-26 01:21 -8.11935 -34.92395 46 ft 15 kts 340°
2026-04-26 01:21 -8.11832 -34.92429 46 ft 15 kts 343°
2026-04-26 01:22 -8.11724 -34.92463 45 ft 16 kts 342°
2026-04-26 01:22 -8.11632 -34.92495 44 ft 5 kts 335°
2026-04-26 01:22 -8.11613 -34.92506 44 ft 0 kts 328°
2026-04-26 01:48 -8.11603 -34.92512 44 ft 2 kts 326°
2026-04-26 01:48 -8.11582 -34.92528 44 ft 4 kts 322°
2026-04-26 01:48 -8.11550 -34.92554 43 ft 7 kts 320°
2026-04-26 01:48 -8.11507 -34.92591 43 ft 9 kts 320°
2026-04-26 01:49 -8.11455 -34.92635 43 ft 10 kts 320°
2026-04-26 01:49 -8.11450 -34.92690 42 ft 7 kts 210°
2026-04-26 01:49 -8.11504 -34.92687 43 ft 8 kts 168°
2026-04-26 01:49 -8.11559 -34.92670 43 ft 9 kts 161°
2026-04-26 01:50 -8.11832 -34.92578 46 ft 78 kts 162°
2026-04-26 01:50 -8.12560 -34.92340 48 ft 136 kts 161°
2026-04-26 01:50 -8.13596 -34.91999 164 ft 170 kts 161°
2026-04-26 01:50 -8.14728 -34.91651 736 ft 170 kts 161°
2026-04-26 01:51 -8.15885 -34.91279 1170 ft 182 kts 160°
2026-04-26 01:51 -8.17155 -34.90861 1574 ft 199 kts 160°
2026-04-26 01:51 -8.18518 -34.90413 1929 ft 216 kts 160°
2026-04-26 01:51 -8.19949 -34.89891 2514 ft 222 kts 150°
2026-04-26 01:52 -8.21041 -34.88802 2936 ft 236 kts 117°
2026-04-26 01:52 -8.21403 -34.87212 3409 ft 253 kts 88°
2026-04-26 01:52 -8.20841 -34.85534 4062 ft 265 kts 57°
2026-04-26 01:52 -8.19650 -34.84067 4623 ft 271 kts 53°
2026-04-26 01:53 -8.18460 -34.82594 4900 ft 272 kts 53°
2026-04-26 01:53 -8.17279 -34.81105 4920 ft 271 kts 54°
2026-04-26 01:53 -8.16093 -34.79594 4932 ft 272 kts 54°
2026-04-26 01:53 -8.14925 -34.78102 4926 ft 272 kts 54°
2026-04-26 01:54 -8.13741 -34.76590 4922 ft 272 kts 54°
2026-04-26 01:54 -8.12572 -34.75093 4941 ft 273 kts 54°
2026-04-26 01:54 -8.11395 -34.73592 4936 ft 273 kts 54°
2026-04-26 01:54 -8.10221 -34.72093 4917 ft 272 kts 54°
2026-04-26 01:55 -8.09039 -34.70582 4931 ft 272 kts 54°
2026-04-26 01:55 -8.07868 -34.69042 5106 ft 279 kts 56°
2026-04-26 01:55 -8.06710 -34.67484 5895 ft 281 kts 56°
2026-04-26 01:55 -8.05530 -34.65894 6799 ft 281 kts 55°
2026-04-26 01:56 -8.04353 -34.64310 7593 ft 284 kts 55°
2026-04-26 01:56 -8.03169 -34.62721 8365 ft 288 kts 54°
2026-04-26 01:56 -8.01962 -34.61102 9135 ft 291 kts 54°
2026-04-26 01:56 -8.00742 -34.59473 9840 ft 294 kts 54°
2026-04-26 01:57 -7.99509 -34.57827 10464 ft 301 kts 54°
2026-04-26 01:57 -7.98216 -34.56097 10804 ft 317 kts 55°
2026-04-26 01:57 -7.96858 -34.54279 11266 ft 328 kts 55°
2026-04-26 01:57 -7.95480 -34.52439 11924 ft 331 kts 54°
2026-04-26 01:58 -7.93930 -34.50750 12570 ft 335 kts 43°
2026-04-26 01:58 -7.92025 -34.49376 13200 ft 340 kts 32°
2026-04-26 01:58 -7.89914 -34.48257 13815 ft 343 kts 29°
2026-04-26 01:58 -7.87775 -34.47181 14422 ft 345 kts 28°
2026-04-26 01:59 -7.85607 -34.46097 15054 ft 347 kts 28°
2026-04-26 01:59 -7.83448 -34.45008 15660 ft 348 kts 28°
2026-04-26 01:59 -7.81270 -34.43905 16268 ft 350 kts 28°
2026-04-26 01:59 -7.79112 -34.42807 16843 ft 351 kts 28°
2026-04-26 02:00 -7.76919 -34.41690 17414 ft 353 kts 28°
2026-04-26 02:00 -7.74712 -34.40565 17956 ft 355 kts 29°
2026-04-26 02:00 -7.72512 -34.39444 18467 ft 357 kts 29°
2026-04-26 02:00 -7.70268 -34.38296 18950 ft 360 kts 29°
2026-04-26 02:01 -7.68034 -34.37153 19423 ft 363 kts 30°
2026-04-26 02:01 -7.65760 -34.35989 19905 ft 366 kts 30°
2026-04-26 02:01 -7.63487 -34.34826 20351 ft 369 kts 30°
2026-04-26 02:01 -7.61186 -34.33637 20800 ft 371 kts 30°
2026-04-26 02:02 -7.58879 -34.32444 21249 ft 374 kts 30°
2026-04-26 02:02 -7.56553 -34.31243 21694 ft 376 kts 30°
2026-04-26 02:02 -7.54215 -34.30040 22113 ft 378 kts 30°
2026-04-26 02:02 -7.51891 -34.28846 22526 ft 381 kts 30°
2026-04-26 02:03 -7.49510 -34.27622 22948 ft 384 kts 30°
2026-04-26 02:03 -7.47111 -34.26391 23356 ft 387 kts 30°
2026-04-26 02:03 -7.44678 -34.25146 23756 ft 390 kts 30°
2026-04-26 02:03 -7.42255 -34.23906 24155 ft 393 kts 30°
2026-04-26 02:04 -7.39883 -34.22693 24551 ft 396 kts 30°
2026-04-26 02:04 -7.37410 -34.21428 24967 ft 398 kts 30°
2026-04-26 02:04 -7.34937 -34.20165 25347 ft 401 kts 30°
2026-04-26 02:04 -7.32449 -34.18892 25710 ft 404 kts 30°
2026-04-26 02:05 -7.29920 -34.17599 26068 ft 407 kts 29°
2026-04-26 02:05 -7.27378 -34.16298 26420 ft 410 kts 29°
2026-04-26 02:05 -7.24819 -34.14991 26761 ft 413 kts 29°
2026-04-26 02:05 -7.22256 -34.13681 27112 ft 415 kts 29°
2026-04-26 02:06 -7.19745 -34.12399 27446 ft 418 kts 29°
2026-04-26 02:06 -7.17123 -34.11062 27764 ft 421 kts 29°
2026-04-26 02:06 -7.14501 -34.09723 28082 ft 424 kts 29°
2026-04-26 02:06 -7.11877 -34.08383 28386 ft 427 kts 29°
2026-04-26 02:07 -7.09228 -34.07031 28693 ft 429 kts 29°
2026-04-26 02:07 -7.06535 -34.05656 29021 ft 432 kts 29°
2026-04-26 02:07 -7.03845 -34.04282 29373 ft 433 kts 28°
2026-04-26 02:07 -7.01146 -34.02903 29738 ft 434 kts 28°
2026-04-26 02:08 -6.98448 -34.01527 30070 ft 436 kts 28°
2026-04-26 02:08 -6.95753 -34.00151 30391 ft 438 kts 28°
2026-04-26 02:08 -6.92994 -33.98745 30763 ft 438 kts 28°
2026-04-26 02:08 -6.90303 -33.97373 31253 ft 436 kts 28°
2026-04-26 02:09 -6.87601 -33.95999 31791 ft 432 kts 27°
2026-04-26 02:09 -6.84917 -33.94637 32294 ft 428 kts 27°
2026-04-26 02:09 -6.82284 -33.93301 32752 ft 426 kts 27°
2026-04-26 02:09 -6.79649 -33.91963 33206 ft 424 kts 27°
2026-04-26 02:10 -6.77072 -33.90654 33587 ft 424 kts 27°
2026-04-26 02:10 -6.74432 -33.89311 33906 ft 424 kts 27°
2026-04-26 02:10 -6.71786 -33.87964 34204 ft 425 kts 27°
2026-04-26 02:10 -6.69141 -33.86618 34477 ft 426 kts 27°
2026-04-26 02:11 -6.66507 -33.85277 34734 ft 427 kts 27°
2026-04-26 02:11 -6.63834 -33.83916 34902 ft 429 kts 27°
2026-04-26 02:11 -6.61186 -33.82568 34907 ft 429 kts 27°
2026-04-26 02:12 -6.55855 -33.79855 34914 ft 428 kts 27°
2026-04-26 02:12 -6.50511 -33.77131 34915 ft 428 kts 27°
2026-04-26 02:13 -6.45756 -33.74711 34916 ft 427 kts 27°
2026-04-26 02:13 -6.39917 -33.71740 34916 ft 427 kts 27°
2026-04-26 02:14 -6.34638 -33.69054 34914 ft 428 kts 27°
2026-04-26 02:14 -6.29341 -33.66360 34913 ft 428 kts 27°
2026-04-26 02:15 -6.24061 -33.63675 34911 ft 428 kts 27°
2026-04-26 02:15 -6.18736 -33.60967 34909 ft 428 kts 27°
2026-04-26 02:16 -6.13425 -33.58267 34908 ft 429 kts 27°
2026-04-26 02:16 -6.08096 -33.55559 34910 ft 429 kts 27°
2026-04-26 02:17 -6.02717 -33.52826 34909 ft 429 kts 27°
2026-04-26 02:17 -5.97368 -33.50108 34906 ft 430 kts 27°
2026-04-26 02:18 -5.92048 -33.47407 34906 ft 429 kts 27°
2026-04-26 02:18 -5.86699 -33.44698 34905 ft 430 kts 27°
2026-04-26 02:19 -5.81307 -33.41974 34904 ft 431 kts 27°
2026-04-26 02:19 -5.75969 -33.39270 34900 ft 431 kts 27°
2026-04-26 02:20 -5.70575 -33.36535 34896 ft 431 kts 27°
2026-04-26 02:20 -5.65222 -33.33814 34896 ft 430 kts 27°
2026-04-26 02:21 -5.59882 -33.31078 34896 ft 431 kts 27°
2026-04-26 02:21 -5.54518 -33.28343 34896 ft 432 kts 27°
2026-04-26 02:22 -5.49132 -33.25608 34895 ft 432 kts 27°
2026-04-26 02:22 -5.43761 -33.22884 34895 ft 433 kts 27°
2026-04-26 02:23 -5.38358 -33.20145 34538 ft 433 kts 27°
2026-04-26 02:23 -5.35697 -33.18796 34081 ft 431 kts 27°
2026-04-26 02:23 -5.33030 -33.17445 33518 ft 428 kts 27°
2026-04-26 02:23 -5.30343 -33.16084 32883 ft 427 kts 27°
2026-04-26 02:24 -5.27704 -33.14748 32283 ft 426 kts 27°
2026-04-26 02:24 -5.25072 -33.13415 31703 ft 426 kts 27°
2026-04-26 02:24 -5.22426 -33.12075 31086 ft 426 kts 27°
2026-04-26 02:24 -5.19752 -33.10721 30467 ft 426 kts 27°
2026-04-26 02:25 -5.17128 -33.09393 29969 ft 422 kts 27°
2026-04-26 02:25 -5.14502 -33.08064 29541 ft 418 kts 28°
2026-04-26 02:25 -5.11946 -33.06770 29107 ft 414 kts 28°
2026-04-26 02:25 -5.09379 -33.05471 28668 ft 411 kts 28°
2026-04-26 02:26 -5.06833 -33.04182 28247 ft 407 kts 28°
2026-04-26 02:26 -5.04300 -33.02899 27819 ft 404 kts 28°
2026-04-26 02:26 -5.01809 -33.01638 27403 ft 401 kts 28°
2026-04-26 02:26 -4.99330 -33.00383 26968 ft 398 kts 28°
2026-04-26 02:27 -4.96844 -32.99125 26547 ft 395 kts 28°
2026-04-26 02:27 -4.94422 -32.97900 26136 ft 392 kts 28°
2026-04-26 02:27 -4.91981 -32.96666 25724 ft 389 kts 28°
2026-04-26 02:27 -4.89579 -32.95451 25328 ft 386 kts 28°
2026-04-26 02:28 -4.87181 -32.94244 24930 ft 383 kts 28°
2026-04-26 02:28 -4.84809 -32.93051 24528 ft 380 kts 28°
2026-04-26 02:28 -4.82437 -32.91856 24109 ft 378 kts 28°
2026-04-26 02:28 -4.80077 -32.90666 23700 ft 376 kts 28°
2026-04-26 02:29 -4.77777 -32.89505 23306 ft 373 kts 28°
2026-04-26 02:29 -4.75443 -32.88325 22898 ft 371 kts 28°
2026-04-26 02:29 -4.73130 -32.87156 22494 ft 369 kts 28°
2026-04-26 02:29 -4.70853 -32.86004 22114 ft 367 kts 28°
2026-04-26 02:30 -4.68583 -32.84856 21738 ft 364 kts 28°
2026-04-26 02:30 -4.66334 -32.83719 21339 ft 363 kts 28°
2026-04-26 02:30 -4.64085 -32.82583 20949 ft 361 kts 28°
2026-04-26 02:30 -4.61837 -32.81447 20560 ft 358 kts 28°
2026-04-26 02:31 -4.59625 -32.80328 20154 ft 357 kts 28°
2026-04-26 02:31 -4.57393 -32.79200 19764 ft 354 kts 28°
2026-04-26 02:31 -4.55221 -32.78102 19374 ft 352 kts 28°
2026-04-26 02:31 -4.53024 -32.76993 18980 ft 350 kts 28°
2026-04-26 02:32 -4.50856 -32.75898 18579 ft 348 kts 28°
2026-04-26 02:32 -4.48696 -32.74807 18175 ft 346 kts 28°
2026-04-26 02:32 -4.46561 -32.73728 17769 ft 344 kts 28°
2026-04-26 02:32 -4.44410 -32.72641 17351 ft 342 kts 28°
2026-04-26 02:33 -4.42305 -32.71578 16956 ft 340 kts 28°
2026-04-26 02:33 -4.40198 -32.70513 16559 ft 338 kts 28°
2026-04-26 02:33 -4.38100 -32.69454 16157 ft 336 kts 28°
2026-04-26 02:33 -4.36013 -32.68399 15746 ft 334 kts 28°
2026-04-26 02:34 -4.33945 -32.67354 15348 ft 332 kts 28°
2026-04-26 02:34 -4.31879 -32.66311 14948 ft 331 kts 28°
2026-04-26 02:34 -4.29838 -32.65279 14551 ft 329 kts 28°
2026-04-26 02:34 -4.27808 -32.64254 14164 ft 327 kts 27°
2026-04-26 02:35 -4.25774 -32.63227 13774 ft 325 kts 28°
2026-04-26 02:35 -4.23754 -32.62207 13380 ft 323 kts 27°
2026-04-26 02:35 -4.21724 -32.61182 12984 ft 322 kts 27°
2026-04-26 02:35 -4.19741 -32.60182 12594 ft 320 kts 27°
2026-04-26 02:36 -4.17741 -32.59173 12204 ft 319 kts 27°
2026-04-26 02:36 -4.15788 -32.58188 11817 ft 317 kts 27°
2026-04-26 02:36 -4.13816 -32.57193 11422 ft 316 kts 27°
2026-04-26 02:36 -4.11827 -32.56189 11030 ft 315 kts 27°
2026-04-26 02:37 -4.09870 -32.55201 10642 ft 314 kts 27°
2026-04-26 02:37 -4.07927 -32.54222 10257 ft 313 kts 27°
2026-04-26 02:37 -4.06011 -32.53254 10019 ft 305 kts 28°
2026-04-26 02:37 -4.04143 -32.52314 9951 ft 290 kts 28°
2026-04-26 02:38 -4.02385 -32.51427 9786 ft 283 kts 28°
2026-04-26 02:38 -4.00618 -32.50534 9454 ft 281 kts 28°
2026-04-26 02:38 -3.98880 -32.49674 9124 ft 280 kts 24°
2026-04-26 02:38 -3.96969 -32.49320 8436 ft 285 kts 353°
2026-04-26 02:39 -3.95143 -32.50078 7754 ft 286 kts 320°
2026-04-26 02:39 -3.93917 -32.51589 7211 ft 279 kts 295°
2026-04-26 02:39 -3.93415 -32.53412 6769 ft 268 kts 271°
2026-04-26 02:39 -3.93533 -32.55227 6249 ft 263 kts 262°
2026-04-26 02:40 -3.93768 -32.57041 5639 ft 262 kts 263°
2026-04-26 02:40 -3.93651 -32.58833 5020 ft 262 kts 292°
2026-04-26 02:40 -3.92579 -32.60231 4510 ft 255 kts 328°
2026-04-26 02:40 -3.90936 -32.60744 3962 ft 250 kts
2026-04-26 02:41 -3.89204 -32.60516 3513 ft 247 kts 12°
2026-04-26 02:41 -3.87492 -32.60208 3251 ft 251 kts 10°
2026-04-26 02:41 -3.85770 -32.59946 3010 ft 246 kts 14°
2026-04-26 02:41 -3.84294 -32.59219 2768 ft 234 kts 51°
2026-04-26 02:42 -3.83655 -32.57845 2668 ft 208 kts 91°
2026-04-26 02:42 -3.83856 -32.56492 2699 ft 190 kts 105°
2026-04-26 02:42 -3.84160 -32.55244 2559 ft 180 kts 103°
2026-04-26 02:42 -3.84385 -32.54061 2408 ft 165 kts 99°
2026-04-26 02:43 -3.84497 -32.53301 2180 ft 160 kts 98°
2026-04-26 02:43 -3.84626 -32.52238 1937 ft 150 kts 97°
2026-04-26 02:43 -3.84729 -32.51205 1743 ft 149 kts 95°
2026-04-26 02:44 -3.84817 -32.50201 1553 ft 141 kts 95°
2026-04-26 02:44 -3.84896 -32.49240 1365 ft 138 kts 95°
2026-04-26 02:44 -3.84973 -32.48273 1179 ft 138 kts 95°
2026-04-26 02:44 -3.85048 -32.47322 1007 ft 137 kts 95°
2026-04-26 02:45 -3.85123 -32.46367 826 ft 137 kts 95°
2026-04-26 02:45 -3.85196 -32.45428 647 ft 136 kts 95°
2026-04-26 02:45 -3.85289 -32.44485 520 ft 136 kts 96°
2026-04-26 02:45 -3.85355 -32.43641 375 ft 136 kts 94°
2026-04-26 02:46 -3.85408 -32.42786 198 ft 135 kts 95°
2026-04-26 02:46 -3.85487 -32.41615 194 ft 14 kts 96°
2026-04-26 02:47 -3.85486 -32.41586 195 ft 2 kts 328°
2026-04-26 02:47 -3.85484 -32.41620 194 ft 6 kts 270°
2026-04-26 02:47 -3.85483 -32.41677 194 ft 9 kts 272°
2026-04-26 02:47 -3.85479 -32.41751 192 ft 11 kts 273°
2026-04-26 02:48 -3.85473 -32.41837 191 ft 13 kts 275°
2026-04-26 02:48 -3.85464 -32.41937 189 ft 15 kts 274°
2026-04-26 02:48 -3.85458 -32.42048 187 ft 17 kts 272°
2026-04-26 02:48 -3.85453 -32.42170 186 ft 18 kts 273°
2026-04-26 02:49 -3.85445 -32.42297 185 ft 18 kts 274°
2026-04-26 02:49 -3.85434 -32.42430 184 ft 18 kts 272°
2026-04-26 02:49 -3.85428 -32.42559 184 ft 18 kts 272°
2026-04-26 02:49 -3.85422 -32.42651 185 ft 7 kts 276°
2026-04-26 02:50 -3.85430 -32.42689 185 ft 5 kts 229°
2026-04-26 02:50 -3.85465 -32.42710 185 ft 6 kts 202°
2026-04-26 02:50 -3.85508 -32.42726 185 ft 3 kts 199°
2026-04-26 02:50 -3.85530 -32.42733 185 ft 3 kts 195°
2026-04-26 02:51 -3.85549 -32.42738 185 ft 1 kts 204°
2026-04-26 02:51 -3.85559 -32.42750 185 ft 2 kts 248°
2026-04-26 02:51 -3.85560 -32.42768 185 ft 2 kts 270°
2026-04-26 02:51 -3.85562 -32.42778 185 ft 1 kts 237°
2026-04-26 02:52 -3.85577 -32.42783 185 ft 3 kts 186°
2026-04-26 02:52 -3.85593 -32.42785 185 ft 0 kts 185°
2026-04-26 02:52 -3.85596 -32.42785 185 ft 0 kts 184°